Location: Charlottesville
(38.0290°N, 78.4770°W)
Time: 09:20:11
(UTC-04:00)

Tiangong 2 - Pass Details

Date: 15 October 2017
Orbit: 388 x 392 km, 42.8° (Epoch: 17 October)

Event Time Altitude Azimuth Distance (km) Brightness Sun altitude
Exits shadow 05:35:48 31° 20° (NNE) 719 2.6 -21.8°
Drops below altitude 10° 05:38:14 10° 66° (ENE) 1,421 4.9 -21.3°
Sets 05:40:27 0° 76° (ENE) 2,277 6.5 -20.9°
